星链-5106 (STARLINK-5106 )

导读 | 星芒AI

STARLINK-5106 是 SpaceX Starlink 项目中的一颗低轨通信卫星,属于第 51 批发射的星链卫星群。该卫星旨在为全球用户提供高速互联网服务,尤其关注网络覆盖不足的地区。它运行在约 550 公里的轨道高度,采用先进的通信技术,支持宽带数据传输。Starlink 卫星群由数千颗卫星组成,共同构建全球卫星互联网系统,提升远程通信能力。STARLINK-5106 的部署有助于增强网络稳定性与覆盖范围,推动全球数字连接的发展。

基本信息
目录编号:
54823
目录名称:
STARLINK-5106
国际标识:
2022-177D
轨道中心:
EARTH
卫星名称:
星链-5106
卫星全名:
星链-5106 (STARLINK-5106 )
卫星状态:
在轨 (已飞行1089 天)
发射日期:
2022-12-28 UTC
国别 :
美国 (US)
星等 :
--
轨道信息
数据来源 国际轨道数据 AOE轨道数据
星历时间 2025-12-21T04:29:08+0800
13小时前
查看轨道信息
2025-12-14T18:00:00+0800
6天前
查看轨道信息
半长轴 6937.222km 6937.161km
偏心率 0.000126 0.0000827
轨道倾角 43.002° 43.004°
近地点辐角 258.427° 254.727°
升交点赤经 201.937° 236.919°
平近点角 101.643° 167.414°
近地点 558.21km 558.452km
远地点 559.96km 559.6km
周期 95.838分钟 95.837分钟
每日圈数 15.025345 15.025542
详细信息
固有亮度:
5
最大亮度:
2.5
卫星平台:
Starlink v1.5
覆盖范围:
全球
运营商:
太空探索技术公司
运营商所在国:
美国
制造商(研发单位):
太空探索技术公司
制造商所在国:
美国
使用方式:
暂无
卫星简介
星链(Starlink)计划是由太空探索技术公司(SpaceX)提出的一个巨型低轨卫星互联网星座项目,计划在2019年至2024年间在太空搭建由约1.2万颗卫星组成的“星链”网络,其中1584颗将部署在地球上空550千米处的近地轨道,并从2020年开始工作。该卫星仍在工作。
2D轨道图
3D轨道图
轨道高度分析图
轨道倾角分析图
轨道综合分析图
查看轨道综合分析图